Regional Weather Roundup
Issued by NWS

Home | Current Version | Previous Version | Text Only | Print | Product List | Glossary On
Versions: 1 2 3 4 5 6 7 8 9 10 11 12 13 14 15 16 17 18 19 20 21 22 23 24 25 26 27 28 29 30 31 32 33 34 35 36 37 38 39 40 41 42 43 44 45 46 47 48 49 50
000
ASUS45 KCYS 022110
RWRWY

WYOMING REGIONAL WEATHER ROUNDUP
NATIONAL WEATHER SERVICE CHEYENNE WY
300 PM MDT TUE JUN 02 2015

NOTE:  "FAIR" INDICATES FEW OR NO CLOUDS BELOW 12,000 FEET
WITH NO SIGNIFICANT WEATHER AND/OR OBSTRUCTIONS TO VISIBILITY.

WYZ001-022200-
...YELLOWSTONE NATIONAL PARK...

CITY           SKY/WX    TMP DP  RH WIND       PRES   REMARKS
LK YELLOWSTONE   N/A     53  37  54 VRB3      30.13F
W YELLOWSTONE  NOT AVBL

$$
WYZ002>013-054>058-071-098>099-022200-
...NORTHERN WYOMING...

CITY           SKY/WX    TMP DP  RH WIND       PRES   REMARKS
JACKSON        PTSUNNY   59  39  47 W12G17    30.02F
CODY           PTSUNNY   70  39  32 W15G33    29.91R
GREYBULL       MOSUNNY   79  32  18 SE3       29.82F
WORLAND        MOSUNNY   81  45  28 NE8       29.82F
SHERIDAN       PTSUNNY   72  50  45 CALM      29.87F
BUFFALO        SUNNY     74  53  48 N7        29.91F
GILLETTE       SUNNY     76  51  41 NE8       29.88F
HULETT         FAIR      75  46  35 N3        29.90S
NEWCASTLE      FAIR      79  45  29 MISG      29.87F

$$
WYZ014>020-022>026-101>103-022200-
...CENTRAL WYOMING...

CITY           SKY/WX    TMP DP  RH WIND       PRES   REMARKS
BIG PINEY      PTSUNNY   72  33  24 W18       30.05R
PINEDALE       PTSUNNY   64  37  36 NW18G28   30.05R
DUBOIS         CLOUDY    64  28  25 W22G28    30.01F
LANDER         MOSUNNY   75  47  36 N6        29.89F
RIVERTON       MOSUNNY   76  40  27 CALM      29.91F
CASPER         PTSUNNY   77  47  34 W7        29.90F
DOUGLAS        CLOUDY    72  53  51 MISG      29.90F

$$
WYZ021-027>030-104>119-022200-
...SOUTHERN WYOMING...

CITY           SKY/WX    TMP DP  RH WIND       PRES   REMARKS
EVANSTON       SUNNY     72  34  24 W20G31    30.07F
KEMMERER       MOSUNNY   72  30  21 W24G37    30.07F
FORT BRIDGER   SUNNY     75  28  17 W14G28    30.08F
ROCK SPRINGS   SUNNY     74  31  20 W12G18    30.03F
DIXON          FAIR      78  28  16 SW15G29   30.06S
RAWLINS        MOSUNNY   76  28  17 SW20G29   30.02F
SARATOGA       FAIR      75  23  14 SW17G53   30.07S
LARAMIE        SUNNY     76  27  16 SW16G28   30.05S
CHEYENNE       MOSUNNY   82  32  16 SW12G22   29.97S
TORRINGTON     LGT RAIN  80  35  19 W13G30    29.85R
PINE BLUFFS    FAIR      82  43  24 E6        29.91S

$$


USA.gov is the U.S. government's official web portal to all federal, state and local government web resources and services.